Regional Weather Roundup
Issued by NWS Upton, NY

Home | Current Version | Previous Version | Text Only | Print | Product List | Glossary On
Versions: 1 2 3 4 5 6 7 8 9 10 11 12 13 14 15 16 17 18 19 20 21 22 23 24 25 26 27 28 29 30 31 32 33 34 35 36 37 38 39 40 41 42 43 44 45 46 47 48 49 50
000
ASUS41 KOKX 121004
RWROKX

REGIONAL WEATHER ROUNDUP
NATIONAL WEATHER SERVICE NEW YORK NY
500 AM EST FRI FEB 12 2016

NOTE: "FAIR" INDICATES FEW OR NO CLOUDS BELOW 12,000 FEET WITH NO
SIGNIFICANT WEATHER AND/OR OBSTRUCTIONS TO VISIBILITY.

NYZ071-072-176-178-NJZ106-104-121100-
NEW YORK CITY METRO AREA


CITY           SKY/WX    TMP DP  RH WIND       PRES   REMARKS
CENTRAL PARK   CLEAR     16  -3  43 W8G16     30.27R WCI   5
LAGUARDIA APRT CLEAR     18   0  45 NW14G21   30.26R WCI   4
KENNEDY INTL   CLEAR     18  -2  41 NW10      30.28R WCI   6
NEWARK/LIBERTY CLEAR     15  -1  49 W8        30.26S WCI   4
BRNX BOT. GARD   N/A     18   0  45 W6        30.27R WCI   9
TETERBORO      CLEAR     16  -1  47 W5        30.26R WCI   9
$$

NYZ177-179-078>081-121100-
LONG ISLAND NEW YORK

CITY           SKY/WX    TMP DP  RH WIND       PRES   REMARKS
FARMINGDALE    CLEAR     16  -1  47 NW8       30.25R WCI   5
ISLIP          CLEAR     15   0  51 W9        30.23R WCI   3
SHIRLEY        CLEAR     10  -1  61 CALM      30.24R
RIVERHEAD        N/A     18  -4  38 NW6       30.20R WCI   9
WESTHAMPTON    CLEAR      2  -5  72 CALM      30.24R
EAST HAMPTON   FAIR      14   3  60 NW5       30.21R WCI   6
MONTAUK POINT    N/A     16   5  62 NW10G20   30.23R WCI   4
$$

NYZ052-065-067-121100-
HUDSON VALLEY

CITY           SKY/WX    TMP DP  RH WIND       PRES   REMARKS
WHITE PLAINS   CLEAR     13  -1  54 W9        30.20R WCI   1
NEWBURGH       CLEAR     10   3  72 W12       30.20R WCI  -4
MONTGOMERY     CLEAR     11   0  61 S7        30.20R WCI   0
POUGHKEEPSIE   CLEAR     11   2  67 CALM      30.22R
ALBANY         PTCLDY     5  -4  66 CALM      30.19R
$$

NJZ001-105-106-008-010-013-015-019>022-104-121100-
NEW JERSEY

CITY           SKY/WX    TMP DP  RH WIND       PRES   REMARKS
NEWARK/LIBERTY CLEAR     15  -1  49 W8        30.26S WCI   4
TETERBORO      CLEAR     16  -1  47 W5        30.26R WCI   9
CALDWELL       CLEAR     15  -2  46 W7        30.26R WCI   5
MORRISTOWN     PTCLDY    14  -2  48 CALM      30.25R
SOMERVILLE     CLEAR     11   2  67 CALM      30.25R
SUSSEX         CLEAR     11  -1  58 SW5       30.20S WCI   3
ANDOVER          N/A     11  -1  58 VRB3      30.21S
TRENTON        CLEAR     15   0  51 W5        30.27R WCI   8
MILLVILLE      CLEAR    N/A N/A N/A W3        30.30S
ATLANTIC CITY  CLEAR     16   2  54 SW5       30.29S WCI   9
WRIGHTSTOWN    PTCLDY    15   1  54 NW7       30.25R WCI   5
TOMS RIVER     CLEAR     10   0  61 W5        30.28R WCI   2
BELMAR         CLEAR     16  -4  41 W6          N/A  WCI   7
$$

PAZ047>061-062-071-121100-
EASTERN PENNSYLVANIA

CITY           SKY/WX    TMP DP  RH WIND       PRES   REMARKS
PHILADELPHIA   PTCLDY    18  -1  43 W8        30.30S WCI   8
ALLENTOWN      PTCLDY    13   0  56 W7        30.24S WCI   3
SCRANTON       CLEAR      9  -2  61 SW6       30.17S WCI  -1
$$

CTZ002-004>006-009-010-012-RIZ004-006-007-MAZ004-011-015-121100-
SOUTHERN NEW ENGLAND
 IN CT

CITY           SKY/WX    TMP DP  RH WIND       PRES   REMARKS
BRADLEY INTL   CLEAR      8  -4  58 CALM      30.17F
HARTFORD       CLEAR     11  -2  56 VRB3      30.21S
DANBURY        CLEAR      9  -2  61 W7        30.19R WCI  -2
WTRBRY/OXFORD  CLEAR      5  -8  56 NW6       30.15R WCI  -6
BRIDGEPORT     CLEAR     12   2  64 NW3       30.24R
MERIDEN        CLEAR      5  -2  72 CALM      30.21R
NEW HAVEN      CLEAR     12   2  64 NW5       30.23R WCI   4
CHESTER        FAIR       9   1  72 W5        30.19R WCI   0
GROTON         CLEAR     10   0  63 W6        30.22R WCI   0
WILLIMANTIC    CLEAR      9  -4  55 W5        30.18R WCI   1

 IN RI

CITY           SKY/WX    TMP DP  RH WIND       PRES   REMARKS
PROVIDENCE     CLEAR      8  -7  50 VRB5      30.19R WCI   0
BLOCK ISLAND   CLEAR     14   1  57 NW21G28   30.17R WCI  -4
WESTERLY       CLEAR     10  -2  58 VRB3      30.21R

 IN MA

CITY           SKY/WX    TMP DP  RH WIND       PRES   REMARKS
BOSTON         CLEAR      8  -7  50 W14G21    30.16R WCI  -8
WORCESTER      CLEAR      0 -10  63 W8        30.05S WCI -14
WESTFIELD      CLEAR      5  -6  60 CALM      30.16S
PROVINCETOWN   MOCLDY    13   4  67 NW25G32   30.13R WCI  -7
NANTUCKET      CLEAR     15   0  51 NW22G29   30.15R WCI  -3
$$

ANZ330-335-338-340-345-350-353-355-121100-
COASTAL MARINE OBSERVATIONS


STATION/POSITION TIME  SKY/WX   TEMP    WIND        PRES    VSBY  WAVE
                                AIR SEA DIR/SP/G                  HT/PER
                 (UTC)          (F)     (DEG/KT/KT) (MB)    (MI)  (FT/S)
NY HARB ENTRANCE 0850            21 42  300/ 19/ 25 1024.0          3/ 4
4S FIRE IS       NOT AVBL
20S FIRE ISLAND  0850            22 43  310/ 19/ 27 1023.6          5/ 6
GREAT SOUTH BAY  NOT AVBL
23SW MTP         0950            20 45  300/ 17/ 21 1022.8          6/ 6
HUDSON CANYON    0850            26 47              1023.4          9/ 8
KINGS POINT      0900            17 35  330/ 12/ 14 1023.7
EXECUTION ROCKS  NOT AVBL
CENTRAL LI SOUND 0900            17     300/ 12/ 16   N/A           3/ 5
EASTERN LI SOUND 0900            18 41  310/ 16/ 23   N/A
ROBBINS REEF     0900            17     290/ 14/ 19 1023.6
$$


>>>>>>>>>>>>>>>>>>>>>>>>>>>> KEY <<<<<<<<<<<<<<<<<<<<<<<<<<<
>                                                          <
>     SKY/WX - SKY CONDITION/PRESENT WEATHER               <
>     TMP    - TEMPERATURE IN FAHRENHEIT                   <
>     DP     - DEWPOINT IN FAHRENHEIT                      <
>     RH     - RELATIVE HUMIDITY IN PERCENT                <
>     WIND   - DIRECTION AND SPEED IN MPH                  <
>     PRES   - MEAN SEA LEVEL PRESSURE IN INCHES OF HG     <
>     WCI    - WIND CHILL INDEX                            <
>     VSB    - VISIBILITY IN MILES                         <
>     HX     - HEAT INDEX                                  <
>     TC     - TEMPERATURE IN CELSIUS                      <
>     VRB    - VARIABLE WIND DIRECTION                     <
>                                                          <
>>>>>>>>>>>>>>>>>>>>>>>>>>>> KEY <<<<<<<<<<<<<<<<<<<<<<<<<<<





USA.gov is the U.S. government's official web portal to all federal, state and local government web resources and services.